Regional Weather Roundup
Issued by NWS Sioux Falls, SD

Home | Current Version | Previous Version | Text Only | Print | Product List | Glossary Off
Versions: 1 2 3 4 5 6 7 8 9 10 11 12 13 14 15 16 17 18 19 20 21 22 23 24 25 26 27 28 29 30 31 32 33 34 35 36 37 38 39 40 41 42 43 44 45 46 47 48 49 50

000
ASUS43 KFSD 022110
RWRFSD

WEATHER ROUNDUP FOR SE SOUTH DAKOTA/SW MINNESOTA/NW IOWA
NATIONAL WEATHER SERVICE SIOUX FALLS SD
400 PM CDT MON MAY 02 2016

NOTE: "FAIR" INDICATES FEW OR NO CLOUDS BELOW 12,000 FEET WITH NO
SIGNIFICANT WEATHER AND OR OBSTRUCTIONS TO VISIBILITY.


SDZ038>040-050-052>070-022200-
SOUTHEAST SOUTH DAKOTA

CITY           SKY/WX    TMP DP  RH WIND       PRES   REMARKS
BROOKINGS      CLOUDY    61  33  35 NE3       30.02F
CHAMBERLAIN    CLOUDY    63  44  49 SW14      30.00F
HURON          CLOUDY    65  35  33 W8        30.00F
MADISON        FAIR      59  32  36 CALM      30.04F
MITCHELL       MOSUNNY   63  38  39 VRB6      30.03F
SIOUX FALLS    CLOUDY    62  36  37 VRB3      30.04F
WINNER         CLOUDY    63  37  38 W10       30.02F
YANKTON        CLOUDY    61  36  39 SW6       30.04F
$$

MNZ071-072-080-081-089-090-097-098-022200-
SOUTHWEST MINNESOTA

CITY           SKY/WX    TMP DP  RH WIND       PRES   REMARKS
FAIRMONT       CLOUDY    63  30  29 S7        30.05S
JACKSON        PTSUNNY   61  32  33 SW6       30.06S
LUVERNE        CLOUDY    63  32  31 W5        30.04F
MARSHALL       PTSUNNY   66  34  30 SE9       30.02F
MONTEVIDEO     MOSUNNY   70  36  28 CALM      30.03F
PIPESTONE      CLOUDY    63  34  34 S6        30.03F
REDWOOD FALLS  MOSUNNY   66  28  24 VRB5      30.02F
TRACY          PTSUNNY   64  35  34 CALM      30.03F
WINDOM         MOSUNNY   63  32  31 CALM      30.04F
WORTHINGTON    SUNNY     61  36  39 VRB5      30.05F
$$

IAZ001>003-012>014-020>022-031-032-NEZ013-014-SDZ071-022200-
NORTHWEST IOWA

CITY           SKY/WX    TMP DP  RH WIND       PRES   REMARKS
CHEROKEE       SUNNY     60  37  41 SW5       30.06S
DENISON        PTSUNNY   63  39  42 NW8       30.05F
ESTHERVILLE    SUNNY     61  40  45 VRB6      30.05F
LE MARS        MOSUNNY   63  39  42 SW5G16    30.06F
ORANGE CITY    CLOUDY    63  39  42 CALM      30.05F
SHELDON        MOSUNNY   63  37  39 VRB3      30.04F
SIOUX CITY     MOSUNNY   65  36  34 VRB3      30.06F
SPENCER        PTSUNNY   60  35  39 CALM      30.06S
STORM LAKE     SUNNY     59  36  41 VRB3      30.07S
$$

ABBREVIATIONS USED IN REMARKS
   TC - TEMPERATURE IN CELSIUS
  WCI - WIND CHILL INDEX
   HX - HEAT INDEX
  VSB - VISIBILITY





USA.gov is the U.S. government's official web portal to all federal, state and local government web resources and services.